Tracking 17142 objects as of 28-May-2015
HD Live streaming from Space Station

FENGYUN 2B AKM

Track FENGYUN 2B AKM now!
FENGYUN 2B AKM is classified as:


NORAD ID: 26460
Int'l Code: 2000-032C
Perigee: 35,737.7 km
Apogee: 35,915.1 km
Inclination: 11.5 °
Period: 1,437.8 minutes
Semi major axis: 42197 km
RCS: 7.9432 m2 (large)
Launch date: June 25, 2000
Source: People's Republic of China (PRC)

Note: This is a ROCKET BODY
Your satellite tracking list
Your tracking list is empty





NASA's NSSDC Master Catalog

Two Line Element Set (TLE):
1 26460U 00032C   15146.36579647  .00000106  00000-0  00000+0 0  9993
2 26460 011.4815 041.0668 0021012 295.0108 253.1993 01.00155429 81701

Source of the keplerian elements: AFSPC

N2YO: 356